THY2VY LTFM-LTCV

Flight info

Callsign THY2VY
Flight time 1h 43m
Altitude 35000
Route VICEN UT57 VEVUD UT341 BAG UL614 SRT UW197 ABDIK
Aircraft A321/M-SDE3FGHIRWY/LB1

Departure

Time 2026-05-01 07:58
Airport İstanbul Airport (LTFM)

Arrival

Time 2026-05-01 09:41
Airport Şırnak Şerafettin Elçi Airport (LTCV)
Time Latitude Longitude Altitude Speed Heading
2026-05-01 07:33 41.26810 28.75022 334 ft 0 kts 269°
2026-05-01 07:45 41.26810 28.75033 334 ft 2 kts 269°
2026-05-01 07:45 41.26811 28.75052 333 ft 2 kts 269°
2026-05-01 07:46 41.26811 28.75072 334 ft 2 kts 265°
2026-05-01 07:46 41.26813 28.75092 332 ft 2 kts 250°
2026-05-01 07:46 41.26828 28.75126 329 ft 2 kts 220°
2026-05-01 07:47 41.26840 28.75138 330 ft 2 kts 204°
2026-05-01 07:47 41.26853 28.75145 330 ft 2 kts 188°
2026-05-01 07:47 41.26863 28.75147 331 ft 0 kts 179°
2026-05-01 07:50 41.26862 28.75147 331 ft 0 kts 179°
2026-05-01 07:51 41.26835 28.75148 329 ft 11 kts 178°
2026-05-01 07:51 41.26737 28.75153 333 ft 16 kts 177°
2026-05-01 07:51 41.26631 28.75182 334 ft 14 kts 140°
2026-05-01 07:52 41.26627 28.75336 331 ft 8 kts 95°
2026-05-01 07:52 41.26580 28.75384 333 ft 11 kts 168°
2026-05-01 07:52 41.26483 28.75388 333 ft 17 kts 179°
2026-05-01 07:53 41.26251 28.75427 334 ft 3 kts 125°
2026-05-01 07:53 41.26250 28.75431 334 ft 1 kts 118°
2026-05-01 07:53 41.26246 28.75454 333 ft 5 kts 100°
2026-05-01 07:53 41.26247 28.75512 334 ft 7 kts 85°
2026-05-01 07:54 41.26249 28.75535 334 ft 0 kts 82°
2026-05-01 07:55 41.26250 28.75539 334 ft 0 kts 79°
2026-05-01 07:55 41.26254 28.75562 330 ft 1 kts 77°
2026-05-01 07:56 41.26261 28.75626 333 ft 7 kts 76°
2026-05-01 07:56 41.26357 28.75669 330 ft 9 kts 356°
2026-05-01 07:57 41.26645 28.75660 333 ft 76 kts 359°
2026-05-01 07:57 41.28330 28.75571 769 ft 139 kts 360°
2026-05-01 07:58 41.30458 28.75333 1817 ft 169 kts
2026-05-01 07:58 41.33066 28.75418 2561 ft 207 kts
2026-05-01 07:59 41.36175 28.75445 3763 ft 236 kts
2026-05-01 07:59 41.39329 28.76377 5739 ft 241 kts 40°
2026-05-01 08:00 41.38225 28.84576 9354 ft 286 kts 149°
2026-05-01 08:01 41.32628 28.88460 11071 ft 334 kts 149°
2026-05-01 08:01 41.30628 28.90140 11665 ft 345 kts 148°
2026-05-01 08:01 41.28611 28.91930 12516 ft 352 kts 148°
2026-05-01 08:02 41.24145 28.94563 14286 ft 356 kts 176°
2026-05-01 08:02 41.21687 28.94566 15115 ft 352 kts 188°
2026-05-01 08:03 41.16807 28.94072 16699 ft 357 kts 188°
2026-05-01 08:03 41.14316 28.93841 17460 ft 360 kts 188°
2026-05-01 08:03 41.09293 28.93386 18975 ft 364 kts 188°
2026-05-01 08:04 41.04218 28.93138 20420 ft 372 kts 178°
2026-05-01 08:04 41.00884 28.94609 21300 ft 391 kts 155°
2026-05-01 08:05 40.96375 28.99937 22584 ft 408 kts 141°
2026-05-01 08:05 40.94374 29.02594 23182 ft 409 kts 142°
2026-05-01 08:05 40.92354 29.05257 23770 ft 411 kts 142°
2026-05-01 08:06 40.88274 29.10568 24719 ft 413 kts 143°
2026-05-01 08:06 40.85128 29.15425 25465 ft 430 kts 128°
2026-05-01 08:07 40.82929 29.22966 26343 ft 451 kts 110°
2026-05-01 08:07 40.81356 29.31027 27176 ft 455 kts 111°
2026-05-01 08:08 40.80554 29.35077 27573 ft 458 kts 111°
2026-05-01 08:08 40.78925 29.43245 28321 ft 463 kts 111°
2026-05-01 08:09 40.77268 29.51511 29008 ft 468 kts 111°
2026-05-01 08:09 40.76431 29.55675 29337 ft 471 kts 111°
2026-05-01 08:09 40.75589 29.59857 29642 ft 473 kts 111°
2026-05-01 08:10 40.73922 29.68306 30254 ft 481 kts 108°
2026-05-01 08:10 40.73323 29.77238 30757 ft 496 kts 96°
2026-05-01 08:11 40.73173 29.86374 31279 ft 501 kts 96°
2026-05-01 08:11 40.72994 29.95555 31940 ft 501 kts 96°
2026-05-01 08:12 40.72652 30.04718 32592 ft 497 kts 103°
2026-05-01 08:12 40.72000 30.09161 32913 ft 492 kts 110°
2026-05-01 08:12 40.69845 30.17663 33538 ft 487 kts 115°
2026-05-01 08:13 40.68729 30.21874 33850 ft 487 kts 115°
2026-05-01 08:13 40.67565 30.26054 34144 ft 483 kts 119°
2026-05-01 08:13 40.64384 30.33716 34593 ft 472 kts 132°
2026-05-01 08:14 40.62438 30.37106 34782 ft 469 kts 135°
2026-05-01 08:14 40.60433 30.40493 35052 ft 469 kts 134°
2026-05-01 08:14 40.56450 30.47288 35122 ft 469 kts 132°
2026-05-01 08:15 40.52227 30.59072 35114 ft 485 kts 108°
2026-05-01 08:16 40.50715 30.67726 35110 ft 486 kts 107°
2026-05-01 08:16 40.49043 30.76295 35105 ft 482 kts 112°
2026-05-01 08:17 40.47035 30.84706 35100 ft 482 kts 112°
2026-05-01 08:17 40.45045 30.93104 35093 ft 481 kts 112°
2026-05-01 08:18 40.43053 31.01475 35084 ft 480 kts 112°
2026-05-01 08:19 40.39057 31.18169 35078 ft 479 kts 112°
2026-05-01 08:19 40.37360 31.26641 35065 ft 482 kts 106°
2026-05-01 08:20 40.35995 31.35172 35055 ft 481 kts 106°
2026-05-01 08:20 40.34597 31.43743 35038 ft 480 kts 107°
2026-05-01 08:21 40.33195 31.52296 35031 ft 479 kts 107°
2026-05-01 08:21 40.31791 31.60824 35026 ft 478 kts 107°
2026-05-01 08:22 40.30386 31.69327 35004 ft 477 kts 107°
2026-05-01 08:22 40.28974 31.77828 35000 ft 477 kts 107°
2026-05-01 08:23 40.27555 31.86324 34982 ft 477 kts 107°
2026-05-01 08:23 40.25999 31.94744 34977 ft 475 kts 111°
2026-05-01 08:24 40.24183 32.03057 34967 ft 475 kts 110°
2026-05-01 08:24 40.22383 32.11367 34966 ft 475 kts 110°
2026-05-01 08:25 40.20587 32.19621 34958 ft 474 kts 110°
2026-05-01 08:25 40.18774 32.27908 34956 ft 474 kts 110°
2026-05-01 08:26 40.16956 32.36189 34949 ft 474 kts 110°
2026-05-01 08:26 40.15129 32.44475 34949 ft 474 kts 110°
2026-05-01 08:27 40.13300 32.52739 34956 ft 474 kts 110°
2026-05-01 08:27 40.11459 32.61026 34959 ft 474 kts 110°
2026-05-01 08:28 40.09616 32.69293 34967 ft 474 kts 110°
2026-05-01 08:28 40.07763 32.77577 34971 ft 474 kts 110°
2026-05-01 08:29 40.05629 32.85664 34977 ft 470 kts 116°
2026-05-01 08:29 40.03280 32.93627 34974 ft 470 kts 115°
2026-05-01 08:30 40.00942 33.01594 34970 ft 470 kts 115°
2026-05-01 08:30 39.98615 33.09486 34965 ft 469 kts 115°
2026-05-01 08:31 39.96264 33.17424 34954 ft 468 kts 115°
2026-05-01 08:31 39.93915 33.25334 34939 ft 467 kts 115°
2026-05-01 08:32 39.91566 33.33218 34922 ft 466 kts 115°
2026-05-01 08:32 39.89218 33.41075 34913 ft 465 kts 115°
2026-05-01 08:33 39.86866 33.48924 34910 ft 465 kts 115°
2026-05-01 08:33 39.84507 33.56774 34908 ft 465 kts 115°
2026-05-01 08:34 39.82456 33.64802 34908 ft 469 kts 109°
2026-05-01 08:34 39.80809 33.73021 34906 ft 470 kts 108°
2026-05-01 08:35 39.79148 33.81177 34909 ft 470 kts 109°
2026-05-01 08:35 39.77384 33.89359 34912 ft 469 kts 112°
2026-05-01 08:36 39.75168 33.97318 34916 ft 468 kts 114°
2026-05-01 08:36 39.72919 34.05267 34923 ft 469 kts 114°
2026-05-01 08:37 39.70668 34.13208 34927 ft 469 kts 114°
2026-05-01 08:37 39.68399 34.21175 34931 ft 470 kts 114°
2026-05-01 08:38 39.66145 34.29060 34937 ft 470 kts 114°
2026-05-01 08:38 39.63864 34.37018 34938 ft 469 kts 114°
2026-05-01 08:39 39.61583 34.44949 34934 ft 469 kts 114°
2026-05-01 08:39 39.59295 34.52877 34937 ft 469 kts 114°
2026-05-01 08:40 39.55862 34.64735 34936 ft 469 kts 114°
2026-05-01 08:40 39.53564 34.72640 34945 ft 468 kts 114°
2026-05-01 08:41 39.51265 34.80530 34940 ft 468 kts 114°
2026-05-01 08:41 39.48962 34.88405 34933 ft 467 kts 114°
2026-05-01 08:42 39.46670 34.96219 34931 ft 467 kts 115°
2026-05-01 08:42 39.44362 35.04066 34933 ft 467 kts 115°
2026-05-01 08:43 39.42047 35.11914 34931 ft 467 kts 115°
2026-05-01 08:43 39.39729 35.19751 34938 ft 467 kts 114°
2026-05-01 08:44 39.37454 35.27613 34941 ft 467 kts 114°
2026-05-01 08:44 39.35183 35.35483 34943 ft 467 kts 114°
2026-05-01 08:45 39.32898 35.43349 34941 ft 468 kts 114°
2026-05-01 08:45 39.30602 35.51223 34946 ft 469 kts 114°
2026-05-01 08:46 39.28296 35.59108 34954 ft 470 kts 114°
2026-05-01 08:46 39.25982 35.66995 34958 ft 470 kts 114°
2026-05-01 08:47 39.23657 35.74896 34969 ft 471 kts 114°
2026-05-01 08:47 39.21325 35.82798 34962 ft 471 kts 114°
2026-05-01 08:48 39.18990 35.90690 34960 ft 470 kts 114°
2026-05-01 08:48 39.16696 35.98531 34955 ft 471 kts 112°
2026-05-01 08:49 39.14948 36.06760 34949 ft 475 kts 104°
2026-05-01 08:49 39.13854 36.15105 34945 ft 476 kts 102°
2026-05-01 08:50 39.12779 36.23512 34947 ft 475 kts 102°
2026-05-01 08:50 39.11700 36.31924 34945 ft 475 kts 102°
2026-05-01 08:51 39.10622 36.40314 34947 ft 475 kts 102°
2026-05-01 08:51 39.09536 36.48724 34942 ft 475 kts 102°
2026-05-01 08:52 39.08631 36.55697 34946 ft 475 kts 102°
2026-05-01 08:52 39.07357 36.65445 34947 ft 475 kts 102°
2026-05-01 08:53 39.06437 36.72456 34944 ft 475 kts 102°
2026-05-01 08:53 39.05335 36.80794 34944 ft 474 kts 102°
2026-05-01 08:54 39.04224 36.89160 34941 ft 475 kts 103°
2026-05-01 08:54 39.03106 36.97532 34945 ft 475 kts 103°
2026-05-01 08:55 39.01980 37.05913 34955 ft 475 kts 103°
2026-05-01 08:55 39.00850 37.14278 34956 ft 475 kts 103°
2026-05-01 08:56 38.99713 37.22651 34964 ft 475 kts 103°
2026-05-01 08:56 38.98569 37.31021 34970 ft 475 kts 103°
2026-05-01 08:57 38.97420 37.39393 34971 ft 475 kts 103°
2026-05-01 08:57 38.96265 37.47741 34976 ft 475 kts 103°
2026-05-01 08:58 38.95106 37.56089 34982 ft 475 kts 103°
2026-05-01 08:58 38.93949 37.64375 34984 ft 474 kts 103°
2026-05-01 08:59 38.92777 37.72725 34988 ft 474 kts 103°
2026-05-01 08:59 38.91601 37.81056 34986 ft 473 kts 103°
2026-05-01 09:00 38.90420 37.89378 34991 ft 473 kts 103°
2026-05-01 09:00 38.89236 37.97682 34994 ft 473 kts 103°
2026-05-01 09:01 38.88044 38.05994 34998 ft 473 kts 103°
2026-05-01 09:01 38.86848 38.14290 34997 ft 472 kts 103°
2026-05-01 09:02 38.85649 38.22570 35005 ft 472 kts 103°
2026-05-01 09:02 38.84443 38.30842 35000 ft 472 kts 103°
2026-05-01 09:03 38.83238 38.39069 34994 ft 472 kts 103°
2026-05-01 09:03 38.82022 38.47338 34998 ft 471 kts 103°
2026-05-01 09:04 38.80799 38.55606 34991 ft 471 kts 104°
2026-05-01 09:04 38.79574 38.63853 34997 ft 471 kts 104°
2026-05-01 09:05 38.78342 38.72099 35002 ft 471 kts 104°
2026-05-01 09:05 38.77103 38.80345 34997 ft 471 kts 104°
2026-05-01 09:06 38.75862 38.88594 34998 ft 471 kts 104°
2026-05-01 09:06 38.74630 38.96833 34999 ft 472 kts 103°
2026-05-01 09:07 38.73417 39.05054 35002 ft 472 kts 103°
2026-05-01 09:07 38.72191 39.13303 35011 ft 472 kts 103°
2026-05-01 09:08 38.70790 39.21508 35013 ft 470 kts 108°
2026-05-01 09:08 38.68779 39.29447 35017 ft 468 kts 114°
2026-05-01 09:09 38.66491 39.37263 35015 ft 469 kts 114°
2026-05-01 09:09 38.64213 39.45095 35022 ft 469 kts 114°
2026-05-01 09:10 38.61927 39.52914 35015 ft 469 kts 114°
2026-05-01 09:10 38.59669 39.60752 35031 ft 470 kts 113°
2026-05-01 09:11 38.57416 39.68595 35036 ft 470 kts 113°
2026-05-01 09:11 38.55151 39.76426 35039 ft 470 kts 114°
2026-05-01 09:12 38.52894 39.84203 35043 ft 470 kts 114°
2026-05-01 09:12 38.50604 39.92071 35038 ft 469 kts 114°
2026-05-01 09:13 38.48338 39.99831 35040 ft 469 kts 114°
2026-05-01 09:13 38.46054 40.07630 35036 ft 469 kts 114°
2026-05-01 09:14 38.43767 40.15419 35033 ft 468 kts 114°
2026-05-01 09:14 38.41476 40.23196 35035 ft 469 kts 114°
2026-05-01 09:15 38.39179 40.30969 35041 ft 469 kts 114°
2026-05-01 09:15 38.36873 40.38754 35039 ft 469 kts 114°
2026-05-01 09:16 38.34558 40.46548 35036 ft 470 kts 114°
2026-05-01 09:17 38.31079 40.58221 35038 ft 470 kts 114°
2026-05-01 09:17 38.27596 40.69854 35036 ft 471 kts 114°
2026-05-01 09:18 38.24104 40.81473 34121 ft 466 kts 114°
2026-05-01 09:19 38.21738 40.89155 32522 ft 466 kts 114°
2026-05-01 09:19 38.20544 40.92973 31707 ft 466 kts 114°
2026-05-01 09:19 38.19346 40.96802 30878 ft 466 kts 114°
2026-05-01 09:20 38.16967 41.04413 29506 ft 458 kts 114°
2026-05-01 09:20 38.14659 41.11804 28145 ft 447 kts 114°
2026-05-01 09:21 38.12411 41.19083 26854 ft 438 kts 113°
2026-05-01 09:21 38.11319 41.22672 26227 ft 434 kts 113°
2026-05-01 09:21 38.09161 41.29747 25016 ft 425 kts 113°
2026-05-01 09:22 38.07038 41.36674 23870 ft 417 kts 113°
2026-05-01 09:22 38.04947 41.43470 22601 ft 409 kts 114°
2026-05-01 09:23 38.03914 41.46814 21966 ft 405 kts 113°
2026-05-01 09:23 38.01881 41.53394 20735 ft 397 kts 114°
2026-05-01 09:24 37.99881 41.59857 19552 ft 390 kts 113°
2026-05-01 09:24 37.98894 41.63045 18970 ft 387 kts 113°
2026-05-01 09:24 37.96943 41.69334 17794 ft 380 kts 113°
2026-05-01 09:25 37.95030 41.75484 16563 ft 374 kts 113°
2026-05-01 09:25 37.93136 41.81555 15398 ft 368 kts 113°
2026-05-01 09:26 37.91909 41.84346 14924 ft 358 kts 133°
2026-05-01 09:26 37.87636 41.87278 14902 ft 355 kts 174°
2026-05-01 09:26 37.85192 41.87153 14897 ft 351 kts 195°
2026-05-01 09:27 37.80797 41.84548 14891 ft 349 kts 209°
2026-05-01 09:27 37.78632 41.83135 14890 ft 350 kts 204°
2026-05-01 09:27 37.76275 41.82410 14896 ft 352 kts 187°
2026-05-01 09:28 37.73829 41.82144 14893 ft 353 kts 186°
2026-05-01 09:28 37.71383 41.81907 14892 ft 352 kts 186°
2026-05-01 09:28 37.68941 41.81673 14889 ft 353 kts 186°
2026-05-01 09:28 37.66495 41.81435 14884 ft 351 kts 186°
2026-05-01 09:29 37.61616 41.80950 14826 ft 350 kts 186°
2026-05-01 09:29 37.59193 41.80707 14536 ft 348 kts 186°
2026-05-01 09:30 37.54432 41.80226 14217 ft 345 kts 186°
2026-05-01 09:30 37.52009 41.79980 13721 ft 345 kts 186°
2026-05-01 09:30 37.47383 41.78782 12527 ft 337 kts 211°
2026-05-01 09:31 37.45612 41.76904 11910 ft 334 kts 232°
2026-05-01 09:31 37.44517 41.74400 11349 ft 331 kts 250°
2026-05-01 09:31 37.43044 41.68971 10396 ft 323 kts 261°
2026-05-01 09:32 37.43136 41.66229 10260 ft 309 kts 285°
2026-05-01 09:32 37.45700 41.62366 10024 ft 287 kts 336°
2026-05-01 09:32 37.47608 41.61944 9947 ft 275 kts
2026-05-01 09:33 37.49380 41.62659 9788 ft 266 kts 33°
2026-05-01 09:33 37.50595 41.64296 9657 ft 251 kts 65°
2026-05-01 09:33 37.50677 41.68207 9432 ft 210 kts 110°
2026-05-01 09:34 37.50185 41.69867 9320 ft 195 kts 116°
2026-05-01 09:34 37.49638 41.71355 9051 ft 182 kts 119°
2026-05-01 09:34 37.48599 41.74065 8443 ft 161 kts 119°
2026-05-01 09:35 37.48115 41.75328 8090 ft 159 kts 119°
2026-05-01 09:35 37.47166 41.77808 7369 ft 156 kts 119°
2026-05-01 09:35 37.46699 41.79023 7032 ft 153 kts 119°
2026-05-01 09:36 37.46238 41.80231 6712 ft 153 kts 119°
2026-05-01 09:36 37.45771 41.81452 6384 ft 155 kts 119°
2026-05-01 09:36 37.45304 41.82672 6035 ft 154 kts 119°
2026-05-01 09:36 37.44840 41.83890 5699 ft 155 kts 119°
2026-05-01 09:37 37.44368 41.85116 5378 ft 155 kts 119°
2026-05-01 09:37 37.43430 41.87572 4920 ft 150 kts 119°
2026-05-01 09:37 37.42987 41.88735 4727 ft 149 kts 119°
2026-05-01 09:38 37.42079 41.91104 4328 ft 159 kts 118°
2026-05-01 09:38 37.41590 41.92379 4139 ft 164 kts 118°
2026-05-01 09:38 37.41108 41.93660 3891 ft 157 kts 118°
2026-05-01 09:39 37.40300 41.95767 3558 ft 163 kts 118°
2026-05-01 09:39 37.39812 41.97056 3342 ft 159 kts 118°
2026-05-01 09:39 37.39346 41.98279 3127 ft 155 kts 118°
2026-05-01 09:40 37.38881 41.99491 2922 ft 155 kts 117°
2026-05-01 09:40 37.37958 42.01888 2499 ft 152 kts 115°
2026-05-01 09:40 37.37487 42.03094 2311 ft 155 kts 110°
2026-05-01 09:41 37.37049 42.04303 2099 ft 150 kts 115°
2026-05-01 09:41 37.36390 42.06001 2076 ft 28 kts 139°
2026-05-01 09:41 37.36368 42.06009 2076 ft 2 kts 178°
2026-05-01 09:42 37.36349 42.05993 2077 ft 6 kts 213°
2026-05-01 09:42 37.36303 42.05953 2075 ft 10 kts 214°
2026-05-01 09:42 37.36188 42.05851 2072 ft 2 kts 267°
2026-05-01 09:43 37.36188 42.05710 2068 ft 7 kts 249°
2026-05-01 09:43 37.36180 42.05685 2067 ft 0 kts 249°